TimeCST,TemperatureF,Dew PointF,Humidity,Sea Level PressureIn,VisibilityMPH,Wind Direction,Wind SpeedMPH,Gust SpeedMPH,PrecipitationIn,Events,Conditions,WindDirDegrees,DateUTC
12:15 AM,42.8,41.0,93,30.09,10.0,NE,12.7,17.3,N/A,,Overcast,40,2013-01-10 06:15:00
12:35 AM,42.8,41.0,93,30.09,10.0,NE,10.4,-,N/A,,Overcast,40,2013-01-10 06:35:00
12:55 AM,42.8,41.0,93,30.07,7.0,NE,11.5,-,0.04,Rain,Rain,40,2013-01-10 06:55:00
2:35 AM,42.8,41.0,93,30.03,5.0,NE,11.5,-,0.05,Rain,Rain,50,2013-01-10 08:35:00
2:55 AM,42.8,41.0,93,30.01,4.0,NE,11.5,-,0.18,Rain,Rain,40,2013-01-10 08:55:00
3:35 AM,42.8,41.0,93,29.98,7.0,NE,11.5,-,0.02,Rain,Light Rain,40,2013-01-10 09:35:00
3:55 AM,42.8,41.0,93,29.98,5.0,NNE,9.2,-,0.03,Rain,Light Rain,30,2013-01-10 09:55:00
4:15 AM,42.8,41.0,93,29.97,7.0,NE,8.1,-,0.04,Rain,Rain,50,2013-01-10 10:15:00
4:35 AM,42.8,41.0,93,29.97,7.0,NE,5.8,-,0.08,Rain,Light Rain,40,2013-01-10 10:35:00
4:55 AM,42.8,41.0,93,29.97,7.0,ENE,5.8,-,0.08,,Overcast,60,2013-01-10 10:55:00
5:15 AM,42.8,41.0,93,29.97,3.0,ENE,5.8,-,N/A,Rain,Light Rain,60,2013-01-10 11:15:00
5:35 AM,42.8,41.0,93,29.96,4.0,NE,4.6,-,N/A,Rain,Light Rain,40,2013-01-10 11:35:00
5:55 AM,42.8,41.0,93,29.96,4.0,NE,5.8,-,N/A,,Light Drizzle,50,2013-01-10 11:55:00
6:15 AM,42.8,41.0,93,29.94,7.0,NNE,6.9,-,N/A,,Overcast,20,2013-01-10 12:15:00
6:35 AM,42.8,41.0,93,29.94,7.0,NNE,8.1,-,N/A,,Overcast,30,2013-01-10 12:35:00
6:55 AM,42.8,41.0,93,29.94,7.0,NNE,6.9,-,N/A,,Overcast,20,2013-01-10 12:55:00
7:15 AM,42.8,41.0,93,29.93,5.0,North,6.9,-,N/A,,Overcast,360,2013-01-10 13:15:00
7:35 AM,42.8,41.0,93,29.94,7.0,NNE,8.1,-,N/A,,Overcast,20,2013-01-10 13:35:00
8:15 AM,42.8,41.0,93,29.92,4.0,NNE,9.2,-,N/A,,Overcast,20,2013-01-10 14:15:00
8:35 AM,42.8,41.0,93,29.92,4.0,NNE,9.2,-,N/A,,Overcast,20,2013-01-10 14:35:00
8:55 AM,42.8,41.0,93,29.91,2.5,NNE,9.2,-,N/A,,Overcast,30,2013-01-10 14:55:00
9:15 AM,44.6,42.8,93,29.91,2.0,NNE,9.2,-,N/A,,Overcast,30,2013-01-10 15:15:00
9:35 AM,44.6,42.8,93,29.91,2.0,NE,8.1,-,N/A,,Overcast,40,2013-01-10 15:35:00
9:55 AM,44.6,42.8,93,29.91,1.5,NNE,8.1,-,N/A,,Overcast,30,2013-01-10 15:55:00
10:15 AM,44.6,42.8,93,29.90,2.0,NE,9.2,-,N/A,,Overcast,40,2013-01-10 16:15:00
10:55 AM,44.6,44.6,100,29.90,2.0,ENE,8.1,-,0.01,,Overcast,70,2013-01-10 16:55:00
11:15 AM,46.4,44.6,93,29.88,3.0,ENE,9.2,-,N/A,,Overcast,60,2013-01-10 17:15:00
11:35 AM,46.4,44.6,93,29.88,7.0,NE,5.8,-,N/A,,Overcast,50,2013-01-10 17:35:00
11:55 AM,46.4,44.6,93,29.88,5.0,ENE,3.5,-,N/A,,Overcast,60,2013-01-10 17:55:00
12:15 PM,46.4,44.6,93,29.87,1.5,Calm,Calm,-,N/A,Rain,Rain,0,2013-01-10 18:15:00
12:35 PM,46.4,44.6,93,29.85,2.0,Calm,Calm,-,N/A,,Light Drizzle,0,2013-01-10 18:35:00
12:55 PM,46.4,44.6,93,29.84,5.0,NNW,3.5,-,N/A,,Overcast,340,2013-01-10 18:55:00
1:15 PM,46.4,44.6,93,29.83,10.0,North,3.5,-,N/A,,Overcast,350,2013-01-10 19:15:00
1:35 PM,46.4,46.4,100,29.83,10.0,NW,3.5,-,N/A,,Overcast,310,2013-01-10 19:35:00
1:55 PM,46.4,46.4,100,29.83,1.5,WNW,4.6,-,0.01,,Heavy Drizzle,300,2013-01-10 19:55:00
2:15 PM,48.2,46.4,93,29.81,2.0,NNW,3.5,-,N/A,,Light Drizzle,340,2013-01-10 20:15:00
3:15 PM,48.2,46.4,93,29.81,10.0,WNW,5.8,-,N/A,,Overcast,290,2013-01-10 21:15:00
3:35 PM,48.2,46.4,93,29.82,7.0,West,4.6,-,N/A,,Overcast,280,2013-01-10 21:35:00
3:55 PM,48.2,46.4,93,29.83,10.0,West,9.2,-,N/A,,Overcast,260,2013-01-10 21:55:00
4:15 PM,46.4,44.6,93,29.84,1.5,West,11.5,-,N/A,Rain,Rain,260,2013-01-10 22:15:00
4:35 PM,46.4,44.6,93,29.85,1.2,West,8.1,-,0.01,,Drizzle,260,2013-01-10 22:35:00
4:55 PM,46.4,44.6,93,29.84,2.5,WNW,4.6,-,0.01,,Overcast,290,2013-01-10 22:55:00
5:15 PM,46.4,44.6,93,29.84,10.0,West,3.5,-,N/A,,Overcast,270,2013-01-10 23:15:00
5:35 PM,46.4,44.6,93,29.84,10.0,West,3.5,-,N/A,,Scattered Clouds,260,2013-01-10 23:35:00
5:55 PM,44.6,42.8,93,29.84,7.0,SW,3.5,-,N/A,,Clear,220,2013-01-10 23:55:00
6:15 PM,44.6,42.8,93,29.82,7.0,Calm,Calm,-,N/A,,Clear,0,2013-01-11 00:15:00
6:35 PM,44.6,42.8,93,29.80,1.2,East,6.9,-,N/A,,Mist,100,2013-01-11 00:35:00
6:55 PM,42.8,41.0,93,29.80,0.5,East,4.6,-,N/A,Fog,Fog,100,2013-01-11 00:55:00
7:15 PM,41.0,37.4,87,29.80,0.5,ESE,3.5,-,N/A,Fog,Fog,110,2013-01-11 01:15:00
7:35 PM,39.2,37.4,93,29.82,0.5,South,3.5,-,N/A,Fog,Fog,190,2013-01-11 01:35:00
7:55 PM,41.0,37.4,87,29.83,0.2,South,8.1,-,N/A,Fog,Fog,190,2013-01-11 01:55:00
8:15 PM,42.8,41.0,93,29.82,0.5,South,9.2,-,N/A,Fog,Fog,190,2013-01-11 02:15:00
8:35 PM,44.6,42.8,93,29.82,5.0,South,9.2,-,N/A,,Overcast,190,2013-01-11 02:35:00
8:55 PM,44.6,42.8,93,29.81,7.0,South,8.1,-,N/A,,Overcast,170,2013-01-11 02:55:00
9:15 PM,44.6,42.8,93,29.82,7.0,South,8.1,-,N/A,,Mostly Cloudy,170,2013-01-11 03:15:00
9:35 PM,44.6,42.8,93,29.82,7.0,South,8.1,-,N/A,,Overcast,180,2013-01-11 03:35:00
9:55 PM,44.6,42.8,93,29.82,7.0,South,10.4,-,N/A,,Mostly Cloudy,170,2013-01-11 03:55:00
10:15 PM,44.6,42.8,93,29.83,7.0,South,8.1,-,N/A,,Overcast,170,2013-01-11 04:15:00
10:55 PM,42.8,42.8,100,29.82,7.0,SSE,6.9,-,N/A,,Mostly Cloudy,160,2013-01-11 04:55:00
11:15 PM,42.8,41.0,93,29.80,7.0,SE,6.9,-,N/A,,Scattered Clouds,140,2013-01-11 05:15:00
11:35 PM,42.8,41.0,93,29.80,7.0,South,10.4,-,N/A,,Scattered Clouds,170,2013-01-11 05:35:00
11:55 PM,42.8,41.0,93,29.79,7.0,SSE,12.7,-,N/A,,Clear,160,2013-01-11 05:55:00